Hourly Weather Roundup
Issued by NWS Central Illinois

Home | Current Version | Previous Version | Text Only | Print | Product List | Glossary On
Versions: 1 2 3 4 5 6 7 8 9 10 11 12 13 14 15 16 17 18 19 20 21 22 23 24 25 26 27 28 29 30 31 32 33 34 35 36 37 38 39 40 41 42 43 44 45 46 47 48 49 50
000
NZUS43 KILX 270410
HWRILX

AREA WEATHER ROUNDUP
NATIONAL WEATHER SERVICE, LINCOLN IL
1000 PM CST THU FEB 26 2015


CITY           SKY/WX    TMP DP  RH WIND       PRES   REMARKS
BLOOMINGTON    CLOUDY    11   3  70 NW14      30.44R WCI  -5
CHAMPAIGN      CLOUDY    11   2  67 NW8       30.43R WCI  -1
DECATUR        CLOUDY    12   6  77 N18       30.45R HAZE    WCI  -6
FLORA          LGT SNOW  18  15  86 NW8       30.45R WCI   8
GALESBURG      CLEAR     -3  -8  80 W6        30.49R WCI -15
JACKSONVILLE   CLEAR      6  -3  66 NW9       30.51R WCI  -8
LACON          CLEAR      2  -5  69 N6        30.48R WCI  -9
LAWRENCEVILLE  FAIR      14   6  70 N9        30.44R WCI   2
LITCHFIELD     MOCLDY     8   0  69 NW10      30.48R WCI  -6
$$


CITY           SKY/WX    TMP DP  RH WIND       PRES   REMARKS
LINCOLN        CLOUDY    11   4  72 NW9       30.51R WCI  -1
MACOMB         CLEAR      0  -6  76 NW13      30.53R WCI -18
MATTOON        CLOUDY    12   4  70 N13       30.43R WCI  -3
MT CARMEL AP   MOCLDY    19   9  63 N7        30.44R WCI  10
OLNEY-NOBLE AP CLOUDY    18  12  79 NW8       30.45R WCI   7
PARIS          MOCLDY     9   4  83 NW8       30.44R WCI  -4
PEORIA         CLEAR      5  -4  66 NW6       30.49R WCI  -6
PONTIAC        CLOUDY     7   0  70 NW6       30.46R WCI  -3
RANTOUL        CLOUDY    12   4  71 NW9       30.43R WCI  -1
ROBINSON       FAIR      11   6  81 N5        30.44S WCI   3
SPRINGFIELD    CLEAR      8  -1  66 NW12      30.49R WCI  -7
TAYLORVILLE    FLURRIES  10   5  79 NW12      30.47S WCI  -4
$$

...REGIONAL REPORTS...


CITY           SKY/WX    TMP DP  RH WIND       PRES   REMARKS
CHICAGO O`HARE PTCLDY     3  -8  60 NW9       30.41R WCI -12
KANKAKEE       CLEAR      6  -3  67 NW6       30.44R WCI  -4
MOLINE         CLEAR      2  -8  63 W7        30.50R WCI -11
MOUNT VERNON   CLOUDY    18  10  73 NW5       30.46R WCI  11
PITTSFIELD     CLEAR      5  -3  69 NW7       30.53R WCI  -7
QUINCY         CLEAR      2  -7  66 NW9       30.52R WCI -13
ROCKFORD       CLEAR     -3 -11  68 S3        30.45R
$$


CITY           SKY/WX    TMP DP  RH WIND       PRES   REMARKS
BURLINGTON     CLEAR      0  -8  69 NW9       30.52R WCI -15
CEDAR RAPIDS   CLEAR     -8 -13  78 NW8       30.50R WCI -24
DES MOINES     CLEAR      2  -6  69 NW5       30.55R WCI  -8
KIRKSVILLE     CLEAR      2  -5  72 N6        30.54R WCI  -9
OTTUMWA        CLEAR     -2  -9  72 NW12      30.54R WCI -20
ST LOUIS       CLEAR     12   0  58 N6        30.51R WCI   3
$$


CITY           SKY/WX    TMP DP  RH WIND       PRES   REMARKS
TERRE HAUTE    MOCLDY    10   4  76 NW5       30.42R WCI   2
EVANSVILLE     CLEAR     20   9  62 N8        30.43R WCI  10
INDIANAPOLIS   PTCLDY     9   1  70 NW9       30.37R WCI  -4
LAFAYETTE      CLOUDY    10   6  84 W3        30.40R
MADISON        CLEAR      2  -7  66 NW5       30.42R WCI  -8
MILWAUKEE      CLEAR      8  -5  55 W5        30.41R WCI   0
$$




USA.gov is the U.S. government's official web portal to all federal, state and local government web resources and services.